Weather History for Estherville, IA

Change the Weather History Date:

Wednesday, November 27, 2013

  Actual Average Record
Temperature  
Mean Temperature 15 °F 26 °F  
Max Temperature 27 °F 35 °F 73 °F (1998)
Min Temperature 2 °F 17 °F -13 °F (2014)
Degree Days  
Heating Degree Days 50 39  
Month to date heating degree days 868 851  
Since 1 July heating degree days 1531 1600  
Cooling Degree Days 0 0  
Month to date cooling degree days 0 0  
Year to date cooling degree days 712 593  
Moisture  
Dew Point 7 °F    
Average Humidity 71    
Maximum Humidity 95    
Minimum Humidity 46    
Precipitation  
Precipitation 0.00 in 0.05 in 0.20 in (1953)
Month to date precipitation 0.38 1.52  
Sea Level Pressure  
Sea Level Pressure 30.26 in    
Wind  
Wind Speed 10 mph (South)    
Max Wind Speed 25 mph    
Max Gust Speed 29 mph    
Visibility 10 miles    
Events      
T = Trace of Precipitation, MM = Missing Value Source: NWS Daily Summary

Daily Weather History Graph

Daily Weather History Graph

Search for Another Location

Airport:

Trip Planner

Search our weather history database for the weather conditions in past years. The results will help you decide how hot, cold, wet, or windy it might be!

Date:

Astronomy

Nov. 27, 2013 Rise Set
Actual Time 7:27 AM CST 4:45 PM CST
Civil Twilight 6:55 AM CST 5:17 PM CST
Nautical Twilight 6:20 AM CST 5:52 PM CST
Astronomical Twilight 5:46 AM CST 6:27 PM CST
Moon 1:20 AM CST (11/27) 1:32 PM CST (11/27)
Length of Visible Light 10h 21m
Length of Day
9h 18m
Waning Crescent, 31% of the Moon is Illuminated
Nov 27
Waning Crescent
Dec 2
New
Dec 9
First Quarter
Dec 17
Full
Dec 25
Last Quarter

Hourly Weather History & Observations

Time (CST) Temp. Windchill Dew Point Humidity Pressure Visibility Wind Dir Wind Speed Gust Speed Precip Events Conditions
12:52 AM 8.1 °F -5.3 °F 3.9 °F 83% 30.43 in 10.0 mi NW 9.2 mph - N/A   Clear
1:52 AM 7.0 °F -4.5 °F 3.0 °F 84% 30.43 in 10.0 mi NW 6.9 mph - N/A   Clear
2:52 AM 7.0 °F -5.7 °F 3.0 °F 84% 30.43 in 10.0 mi NW 8.1 mph - N/A   Clear
3:52 AM 6.1 °F -2.8 °F 3.0 °F 87% 30.43 in 10.0 mi NW 4.6 mph - N/A   Clear
4:52 AM 3.9 °F -8.2 °F -0.0 °F 84% 30.43 in 10.0 mi NW 6.9 mph - N/A   Clear
5:52 AM 5.0 °F -4.1 °F 1.9 °F 87% 30.43 in 10.0 mi NW 4.6 mph - N/A   Clear
6:52 AM 1.9 °F -10.6 °F -0.9 °F 88% 30.41 in 10.0 mi WNW 6.9 mph - N/A   Clear
7:52 AM 3.9 °F - 1.9 °F 91% 30.41 in 10.0 mi Calm Calm - N/A   Clear
8:52 AM 10.0 °F - 8.1 °F 92% 30.41 in 10.0 mi Calm Calm - N/A   Clear
9:52 AM 15.1 °F 5.2 °F 9.0 °F 77% 30.38 in 10.0 mi SSE 6.9 mph - N/A   Clear
10:52 AM 18.0 °F 6.9 °F 9.0 °F 68% 30.36 in 10.0 mi South 9.2 mph - N/A   Clear
11:52 AM 21.0 °F 8.1 °F 9.0 °F 60% 30.31 in 10.0 mi South 13.8 mph 23.0 mph N/A   Clear
12:52 PM 23.0 °F 9.2 °F 9.0 °F 55% 30.26 in 10.0 mi South 17.3 mph - N/A   Clear
1:52 PM 26.1 °F 12.7 °F 9.0 °F 49% 30.21 in 10.0 mi South 18.4 mph - N/A   Partly Cloudy
2:52 PM 26.1 °F 12.7 °F 8.1 °F 47% 30.17 in 10.0 mi South 18.4 mph - N/A   Clear
3:52 PM 26.1 °F 12.3 °F 9.0 °F 49% 30.14 in 10.0 mi South 19.6 mph - N/A   Clear
4:52 PM 24.1 °F 9.8 °F 9.0 °F 53% 30.08 in 10.0 mi SSE 19.6 mph - N/A   Clear
5:52 PM 23.0 °F 9.2 °F 10.0 °F 58% 30.08 in 10.0 mi South 17.3 mph - N/A   Clear
6:52 PM 21.9 °F 11.0 °F 10.9 °F 63% 30.11 in 10.0 mi South 10.4 mph - N/A   Clear
7:52 PM 21.0 °F 9.9 °F 10.9 °F 65% 30.09 in 10.0 mi SSE 10.4 mph - N/A   Clear
8:52 PM 18.0 °F 6.1 °F 10.9 °F 74% 30.06 in 10.0 mi SE 10.4 mph - N/A   Clear
9:52 PM 16.0 °F 5.3 °F 10.0 °F 77% 30.06 in 10.0 mi SE 8.1 mph - N/A   Clear
10:52 PM 15.1 °F 4.2 °F 10.0 °F 80% 30.05 in 10.0 mi SE 8.1 mph - N/A   Clear
11:52 PM 12.9 °F 1.6 °F 9.0 °F 84% 30.06 in 10.0 mi SSE 8.1 mph - N/A   Clear